Meteo pe oră la Bolshie Noviki

Astăzi, 12 Mai, Miercuri

Timp Temperatura Precipitaţii Vânt Presiune Umiditate
00:00 +11°C° 0 mm 3 m/s 747 mmHg 86%
01:00 +11°C° 0 mm 3 m/s 747 mmHg 89%
02:00 +11°C° 0 mm 3 m/s 747 mmHg 92%
03:00 +11°C° 0 mm 3 m/s 747 mmHg 93%
04:00 +11°C° 0 mm 3 m/s 747 mmHg 94%
05:00 +11°C° 0 mm 3 m/s 747 mmHg 95%
06:00 +12°C° 0 mm 4 m/s 747 mmHg 88%
07:00 +13°C° 0 mm 5 m/s 747 mmHg 82%
08:00 +15°C° 0 mm 6 m/s 747 mmHg 76%
09:00 +15°C° 0 mm 6 m/s 747 mmHg 69%
10:00 +16°C° 0 mm 6 m/s 747 mmHg 62%
11:00 +17°C° 0 mm 6 m/s 747 mmHg 55%
12:00 +17°C° 0 mm 6 m/s 747 mmHg 52%
13:00 +17°C° 0 mm 6 m/s 746 mmHg 49%
14:00 +17°C° 0 mm 6 m/s 746 mmHg 46%
15:00 +17°C° 0 mm 5 m/s 746 mmHg 49%
16:00 +17°C° 0 mm 5 m/s 746 mmHg 52%
17:00 +18°C° 0 mm 4 m/s 745 mmHg 55%
18:00 +15°C° 0 mm 4 m/s 745 mmHg 61%
19:00 +13°C° 0 mm 3 m/s 744 mmHg 68%
20:00 +12°C° 0 mm 2 m/s 744 mmHg 74%
21:00 +10°C° 0 mm 2 m/s 744 mmHg 76%
22:00 +11°C° 0 mm 1 m/s 743 mmHg 78%
23:00 +10°C° 0 mm 1 m/s 743 mmHg 80%

Mâine, 13 Mai, Joi

Timp Temperatura Precipitaţii Vânt Presiune Umiditate
00:00 +10°C° 0 mm 1 m/s 742 mmHg 78%
01:00 +11°C° 0 mm 1 m/s 741 mmHg 77%
02:00 +11°C° 0 mm 1 m/s 741 mmHg 76%
03:00 +10°C° 1.4 mm 1 m/s 740 mmHg 83%
04:00 +9°C° 1.4 mm 2 m/s 740 mmHg 89%
05:00 +8°C° 1.4 mm 2 m/s 739 mmHg 96%
06:00 +8°C° 2.6 mm 3 m/s 739 mmHg 96%
07:00 +7°C° 2.6 mm 4 m/s 738 mmHg 97%
08:00 +7°C° 2.6 mm 4 m/s 738 mmHg 97%
09:00 +7°C° 2.8 mm 4 m/s 738 mmHg 96%
10:00 +7°C° 2.8 mm 4 m/s 738 mmHg 96%
11:00 +7°C° 2.8 mm 4 m/s 739 mmHg 95%
12:00 +7°C° 1.7 mm 4 m/s 739 mmHg 95%
13:00 +7°C° 1.7 mm 4 m/s 739 mmHg 95%
14:00 +7°C° 1.7 mm 4 m/s 739 mmHg 94%
15:00 +8°C° 0.4 mm 4 m/s 738 mmHg 93%
16:00 +8°C° 0.4 mm 4 m/s 738 mmHg 92%
17:00 +10°C° 0.4 mm 4 m/s 738 mmHg 90%
18:00 +8°C° 0.4 mm 4 m/s 738 mmHg 90%
19:00 +8°C° 0.4 mm 5 m/s 738 mmHg 91%
20:00 +8°C° 0.4 mm 5 m/s 738 mmHg 91%
21:00 +8°C° 0.1 mm 5 m/s 738 mmHg 92%
22:00 +8°C° 0.1 mm 5 m/s 737 mmHg 93%
23:00 +8°C° 0.1 mm 5 m/s 737 mmHg 94%

Poimâine, 14 Mai, Vineri

Timp Temperatura Precipitaţii Vânt Presiune Umiditate
00:00 +8°C° 0.5 mm 5 m/s 737 mmHg 94%
01:00 +8°C° 0.5 mm 5 m/s 737 mmHg 95%
02:00 +9°C° 0.5 mm 5 m/s 737 mmHg 96%
03:00 +9°C° 0.4 mm 5 m/s 737 mmHg 96%
04:00 +9°C° 0.4 mm 5 m/s 737 mmHg 96%
05:00 +9°C° 0.4 mm 6 m/s 737 mmHg 95%
06:00 +9°C° 0.1 mm 6 m/s 737 mmHg 95%
07:00 +10°C° 0.1 mm 6 m/s 737 mmHg 94%
08:00 +10°C° 0.1 mm 6 m/s 737 mmHg 93%
09:00 +11°C° 0 mm 6 m/s 737 mmHg 91%
10:00 +13°C° 0 mm 6 m/s 737 mmHg 88%
11:00 +13°C° 0 mm 6 m/s 738 mmHg 85%
12:00 +13°C° 0.1 mm 5 m/s 738 mmHg 86%
13:00 +13°C° 0.1 mm 5 m/s 738 mmHg 87%
14:00 +13°C° 0.1 mm 4 m/s 738 mmHg 87%
15:00 +13°C° 0.1 mm 4 m/s 738 mmHg 85%
16:00 +14°C° 0.1 mm 4 m/s 738 mmHg 83%
17:00 +14°C° 0.1 mm 3 m/s 738 mmHg 81%
18:00 +14°C° 0.1 mm 3 m/s 737 mmHg 85%
19:00 +14°C° 0.1 mm 2 m/s 737 mmHg 89%
20:00 +13°C° 0.1 mm 2 m/s 737 mmHg 94%
21:00 +12°C° 0 mm 2 m/s 738 mmHg 95%
22:00 +10°C° 0 mm 2 m/s 738 mmHg 96%
23:00 +10°C° 0 mm 2 m/s 738 mmHg 97%

15 Mai, Sâmbătă

Timp Temperatura Precipitaţii Vânt Presiune Umiditate
00:00 +9°C° 0 mm 2 m/s 738 mmHg 97%
01:00 +8°C° 0 mm 2 m/s 738 mmHg 97%
02:00 +8°C° 0 mm 2 m/s 738 mmHg 98%
03:00 +8°C° 0 mm 2 m/s 738 mmHg 97%
04:00 +9°C° 0 mm 2 m/s 738 mmHg 97%
05:00 +9°C° 0 mm 2 m/s 738 mmHg 96%
06:00 +9°C° 0.1 mm 2 m/s 738 mmHg 96%
07:00 +10°C° 0.1 mm 3 m/s 738 mmHg 95%
08:00 +10°C° 0.1 mm 3 m/s 739 mmHg 94%
09:00 +11°C° 0 mm 3 m/s 739 mmHg 92%
10:00 +11°C° 0 mm 4 m/s 739 mmHg 89%
11:00 +12°C° 0 mm 4 m/s 739 mmHg 87%
12:00 +12°C° 0 mm 4 m/s 739 mmHg 84%
13:00 +13°C° 0 mm 4 m/s 740 mmHg 82%
14:00 +13°C° 0 mm 4 m/s 740 mmHg 79%
15:00 +14°C° 0.1 mm 3 m/s 740 mmHg 75%
16:00 +16°C° 0.1 mm 3 m/s 740 mmHg 70%
17:00 +17°C° 0.1 mm 3 m/s 739 mmHg 66%
18:00 +15°C° 0 mm 2 m/s 740 mmHg 73%
19:00 +13°C° 0 mm 2 m/s 740 mmHg 79%
20:00 +12°C° 0 mm 1 m/s 740 mmHg 85%
21:00 +11°C° 0 mm 1 m/s 740 mmHg 86%
22:00 +11°C° 0 mm 1 m/s 741 mmHg 86%
23:00 +11°C° 0 mm 1 m/s 741 mmHg 86%

16 Mai, Duminică

Timp Temperatura Precipitaţii Vânt Presiune Umiditate
00:00 +10°C° 0 mm 1 m/s 741 mmHg 87%
01:00 +10°C° 0 mm 1 m/s 741 mmHg 88%
02:00 +10°C° 0 mm 1 m/s 741 mmHg 89%
03:00 +10°C° 0 mm 1 m/s 742 mmHg 89%
04:00 +10°C° 0 mm 1 m/s 742 mmHg 89%
05:00 +10°C° 0 mm 1 m/s 742 mmHg 89%
06:00 +12°C° 0 mm 1 m/s 742 mmHg 84%
07:00 +14°C° 0 mm 1 m/s 742 mmHg 79%
08:00 +15°C° 0 mm 2 m/s 743 mmHg 74%
09:00 +17°C° 0 mm 2 m/s 743 mmHg 70%
10:00 +18°C° 0 mm 2 m/s 743 mmHg 66%
11:00 +19°C° 0 mm 3 m/s 743 mmHg 62%
12:00 +20°C° 0 mm 3 m/s 743 mmHg 59%
13:00 +21°C° 0 mm 3 m/s 743 mmHg 56%
14:00 +21°C° 0 mm 3 m/s 743 mmHg 52%
15:00 +20°C° 0 mm 3 m/s 742 mmHg 59%
16:00 +19°C° 0 mm 3 m/s 742 mmHg 65%
17:00 +18°C° 0 mm 3 m/s 742 mmHg 71%
18:00 +17°C° 0 mm 3 m/s 742 mmHg 75%
19:00 +16°C° 0 mm 3 m/s 742 mmHg 79%
20:00 +14°C° 0 mm 3 m/s 742 mmHg 83%
21:00 +14°C° 0 mm 3 m/s 742 mmHg 85%
22:00 +13°C° 0 mm 3 m/s 742 mmHg 87%
23:00 +12°C° 0 mm 3 m/s 741 mmHg 89%

17 Mai, Luni

Timp Temperatura Precipitaţii Vânt Presiune Umiditate
00:00 +12°C° 0 mm 3 m/s 741 mmHg 89%
01:00 +12°C° 0 mm 3 m/s 741 mmHg 89%
02:00 +12°C° 0 mm 4 m/s 741 mmHg 88%
03:00 +12°C° 0 mm 4 m/s 740 mmHg 87%
04:00 +12°C° 0 mm 4 m/s 740 mmHg 86%
05:00 +12°C° 0 mm 4 m/s 739 mmHg 84%
06:00 +13°C° 0.1 mm 5 m/s 739 mmHg 85%
07:00 +13°C° 0.1 mm 5 m/s 738 mmHg 85%
08:00 +14°C° 0.1 mm 5 m/s 738 mmHg 86%
09:00 +15°C° 0.3 mm 5 m/s 738 mmHg 84%
10:00 +17°C° 0.3 mm 6 m/s 737 mmHg 81%
11:00 +19°C° 0.3 mm 6 m/s 737 mmHg 79%
12:00 +19°C° 0.1 mm 5 m/s 737 mmHg 80%
13:00 +19°C° 0.1 mm 4 m/s 737 mmHg 81%
14:00 +19°C° 0.1 mm 3 m/s 737 mmHg 83%
15:00 +19°C° 0.5 mm 3 m/s 737 mmHg 85%
16:00 +18°C° 0.5 mm 3 m/s 737 mmHg 88%
17:00 +18°C° 0.5 mm 3 m/s 737 mmHg 90%
18:00 +17°C° 1.5 mm 2 m/s 737 mmHg 92%
19:00 +16°C° 1.5 mm 2 m/s 737 mmHg 95%
20:00 +15°C° 1.5 mm 2 m/s 737 mmHg 97%
21:00 +15°C° 0 mm 2 m/s 737 mmHg 97%
22:00 +14°C° 0 mm 2 m/s 737 mmHg 97%
23:00 +14°C° 0 mm 2 m/s 737 mmHg 97%
Arată mai mult

Formular de consimțământ

Meteoprog și furnizorii noștri de servicii pot stoca și accesa date personale, precum cookies, identificatori de dispozitiv sau alte tehnologii similare pe dispozitivul dumneavoastră și procesa astfel de date pentru a personaliza conținutul și reclamele, dar și pentru a oferi caracteristici de social media și pentru a analiza traficul.

  • Stocarea și/sau accesarea informațiilor pe dispozitivul dumneavoastră

    Cookies, identificatori de dispozitiv sau alte informații pot fi stocate sau accesate pe dispozitiv în scopurile indicate mai sus.

  • Reclame și conținut personalizat, evaluarea reclamelor și a conținutului, informații despre audiențe și dezvoltarea produselor

    Reclamele și conținutul pot fi personalizate pe baza unui profil. Pot fi adăugate date suplimentare pentru a personaliza mai bine reclamele și conținutul. Performanța reclamelor și conținutului poate fi măsurată. Pot fi obținute informații despre utilizatorii care au văzut reclamele și conținutul. Aceste date pot fi utilizate pentru a dezvolta sau îmbunătăți experiența utilizatorilor, sistemele și software-ul.

Dând clic pe ‘Sunt de acord’, permiteți utilizarea cookie-urilor menționate, a identificatorilor de dispozitiv, balizelor web sau altor tehnologii similare. Setările pot fi modificate din browser-ul dispozitivului dumneavoastră.

În anumite scopuri, interesele legitime pot prima asupra consimțământului. Puteți citi mai multe informații în acest sens în Politica privind Confidențialitatea Datelor și Cookie.